Tracking 28514 objects as of 24-Feb-2024
HD Live streaming from Space Station
objects crossing your sky now

STARLINK 1059

Track STARLINK 1059 now!
10-day predictions
STARLINK 1059 is classified as:


NORAD ID: 44764
Int'l Code: 2019-074BD
Perigee: 479.8 km
Apogee: 488.0 km
Inclination: 53.1 °
Period: 94.1 minutes
Semi major axis: 6854 km
RCS: Unknown
Launch date: November 11, 2019
Source: United States (US)
Launch site: AIR FORCE EASTERN TEST RANGE (AFETR)
Your satellite tracking list
Your tracking list is empty




NASA's NSSDC Master Catalog

Two Line Element Set (TLE):
1 44764U 19074BD  24054.85793697  .00021964  00000-0  76332-3 0  9991
2 44764  53.0769 260.1696 0005975 185.4100 174.6836 15.29678001237109
Source of the keplerian elements: AFSPC